Regional Weather Roundup
Issued by NWS

Home | Current Version | Previous Version | Graphics & Text | Print | Product List | Glossary On
Versions: 1 2 3 4 5 6 7 8 9 10 11 12 13 14 15 16 17 18 19 20 21 22 23 24 25 26 27 28 29 30 31 32 33 34 35 36 37 38 39 40 41 42 43 44 45 46 47 48 49 50
000
ASUS45 KCYS 260210
RWRWY

WYOMING REGIONAL WEATHER ROUNDUP
NATIONAL WEATHER SERVICE CHEYENNE WY
800 PM MDT SAT APR 25 2015

NOTE:  "FAIR" INDICATES FEW OR NO CLOUDS BELOW 12,000 FEET
WITH NO SIGNIFICANT WEATHER AND/OR OBSTRUCTIONS TO VISIBILITY.

WYZ001-260300-
YELLOWSTONE NATIONAL PARK

CITY           SKY/WX    TMP DP  RH WIND       PRES   REMARKS
LK YELLOWSTONE   N/A     36  22  56 CALM      29.82S
W YELLOWSTONE  NOT AVBL

$$
WYZ002>013-054>058-071-098>099-260300-
NORTHERN WYOMING

CITY           SKY/WX    TMP DP  RH WIND       PRES   REMARKS
JACKSON        PTCLDY    45  25  45 CALM      29.77R
CODY           CLOUDY    45  34  65 N10       29.82R
GREYBULL       FAIR      50  34  54 N16       29.79R
WORLAND        FAIR      50  35  56 N3        29.77R
SHERIDAN       CLOUDY    43  34  70 N6        29.87R
BUFFALO        CLOUDY    41  33  73 N13       29.87R
GILLETTE       CLOUDY    44  35  70 NE12      29.86R
HULETT         CLOUDY    41  37  87 CALM      29.88R
NEWCASTLE      MOCLDY    46  43  87 NW9       29.79R

$$
WYZ014>020-022>026-101>103-260300-
CENTRAL WYOMING

CITY           SKY/WX    TMP DP  RH WIND       PRES   REMARKS
BIG PINEY      FAIR      47  25  42 E8        29.75F
PINEDALE       FAIR      45  27  49 CALM      29.77S
DUBOIS         FAIR      39  32  75 SE10      29.77R WCI  32
LANDER         MOCLDY    47  36  65 E7        29.75R
RIVERTON       CLOUDY    48  32  53 N13       29.77R
CASPER         FAIR      43  35  73 N13       29.81R
DOUGLAS        FAIR      48  38  68 NE16      29.79R

$$
WYZ021-027>030-104>119-260300-
SOUTHERN WYOMING

CITY           SKY/WX    TMP DP  RH WIND       PRES   REMARKS
EVANSTON       LGT RAIN  37  35  92 N12       29.75S FOG     WCI  29
KEMMERER       CLOUDY    37  32  81 N3        29.77S
FORT BRIDGER   CLOUDY    39  39 100 W5        29.78S
ROCK SPRINGS   CLOUDY    47  31  53 E12       29.74S
DIXON          FAIR      49  34  56 CALM      29.79S
RAWLINS        FAIR      46  26  45 SE3       29.78S
SARATOGA       FAIR      46  27  46 CALM      29.80S
LARAMIE        FAIR      43  35  73 E6        29.80R
CHEYENNE       MOCLDY    48  39  71 E10       29.79R
TORRINGTON     CLOUDY    55  41  59 S6        29.74R
PINE BLUFFS    LGT RAIN  46  43  87 NE3       29.80R

$$


USA.gov is the U.S. government's official web portal to all federal, state and local government web resources and services.